Location: Nairn
(57.5833°N, 3.8667°W)
Time: 17:05:13
(UTC+00:00)

Tiros 1 - Pass Details

Date: 27 November 2020
Orbit: 630 x 663 km, 48.4° (Epoch: 21 January)

Event Time Altitude Azimuth Distance (km) Brightness Sun altitude
Rises 19:22:39 0° 255° (WSW) 2,988 11.6 -28.4°
Reaches altitude 10° 19:25:17 10° 243° (WSW) 2,071 10.4 -28.8°
Enters shadow 19:28:10 24° 209° (SSW) 1,348 8.9 -29.2°
Maximum altitude 19:29:15 27° 186° (S) 1,267 - -29.3°
Drops below altitude 10° 19:33:13 10° 130° (SE) 2,053 - -29.8°
Sets 19:35:49 0° 118° (ESE) 2,957 - -30.2°
